{"data":{"norad_id":54852,"epoch":"2026-05-24T18:59:34.520928Z","epoch_age_seconds":88931,"freshness":"FRESH","line1":"1 54852U 22177AJ  26144.79137177  .00002493  00000+0  10008-3 0  9991","line2":"2 54852  43.0067  51.4360 0001262 262.7926  97.2782 15.27583012188736","mean_motion":15.27583012,"eccentricity":0.0001262,"inclination_deg":43.0067,"raan_deg":51.436,"arg_perigee_deg":262.7926,"mean_anomaly_deg":97.2782,"bstar":0.00010008,"rev_number":18873,"period_min":94.266562843918,"perigee_km":482.17419649579,"apogee_km":483.90595759003,"semimajor_km":6861.1770770429,"source":"CELESTRAK","updated_at":"2026-05-25T13:38:17.725937Z"}}